GFSSGP_2pvu_pres_252.txt.gz
Presure
231 240 124 97 177 136 190 158 108 103 159 137 108 111 123 118 131 145 119 121 120 124 142 124 118 122 122 120 124 100 102 108 110 111 108 114 119 122 146 109 148 114 89 135 76 158 79 78 86
100 219 196 115 152 180 191 138 185 120 117 104 116 116 117 111 132 102 117 119 108 123 109 118 125 121 118 118 126 102 124 98 116 120 104 114 132 112 123 142 111 108 121 104 109 79 81 81 84
135 222 226 192 92 92 97 147 112 148 136 110 106 111 109 112 128 111 116 130 127 152 111 138 118 122 108 119 124 109 125 117 114 107 105 108 139 141 117 144 128 149 110 103 120 77 111 137 102
81 84 91 84 92 92 223 99 102 106 191 176 91 98 108 112 114 124 105 107 114 162 121 116 124 121 128 107 141 109 136 104 110 137 122 133 121 137 123 112 117 162 117 126 78 128 102 80 103
81 85 83 166 86 90 157 135 99 91 111 124 198 115 105 108 109 112 124 118 125 103 115 108 112 112 114 105 111 105 108 113 117 119 125 117 115 135 133 130 116 114 117 155 146 163 137 147 117
82 81 83 182 138 142 114 139 92 146 92 199 142 109 118 121 112 104 113 110 115 120 110 115 183 108 116 156 122 110 135 105 119 143 106 143 149 142 123 111 114 116 143 121 144 152 158 144 146
90 177 150 179 82 90 81 85 81 127 197 82 219 124 147 103 109 117 100 109 166 116 120 122 160 159 141 153 169 117 164 148 118 123 141 105 135 104 116 149 109 144 133 149 138 150 155 167 156
146 133 184 150 88 86 162 73 64 200 88 87 236 87 193 113 102 119 187 102 93 99 107 117 123 130 153 146 122 110 169 140 151 109 160 157 113 120 119 114 158 163 141 164 149 140 137 154 140
195 182 184 160 167 72 100 78 78 128 82 127 77 120 88 231 244 209 208 105 163 135 104 106 128 117 110 155 169 140 126 157 141 139 139 127 132 142 145 152 161 161 176 156 160 143 143 142 152
172 178 162 166 119 157 214 75 187 193 164 87 123 127 84 87 94 98 97 142 148 103 106 112 108 102 102 108 101 103 166 97 171 156 143 120 140 152 154 160 152 144 144 149 152 141 137 132 133
172 167 181 182 179 194 196 72 99 200 92 423 146 414 149 91 184 95 122 97 188 200 102 102 110 110 120 107 105 103 91 107 107 108 105 111 123 149 117 115 145 151 140 141 118 126 122 115 123
163 169 171 123 177 193 219 191 211 84 205 85 105 84 82 224 112 155 82 108 124 103 174 109 107 109 102 98 104 107 109 109 109 141 137 115 126 109 109 119 113 114 114 121 118 105 103 128 129
148 186 165 191 153 167 195 236 197 145 137 176 75 77 73 145 89 78 87 90 90 99 102 150 159 105 108 111 103 105 107 108 111 108 111 107 112 109 108 110 117 124 121 115 107 136 110 116 126
145 163 170 177 170 185 173 130 238 212 227 165 257 237 219 84 150 88 108 89 81 94 88 95 220 100 91 103 107 109 105 104 105 108 121 109 108 110 109 118 115 117 126 132 164 190 178 117 172
173 130 132 163 162 149 202 222 206 200 152 231 254 242 213 142 199 231 78 78 80 78 79 83 90 101 107 107 182 111 188 114 173 104 107 109 108 108 111 106 109 132 104 109 110 107 138 99 111
176 167 145 140 154 197 141 204 205 180 208 279 217 236 236 219 195 190 195 237 82 182 237 114 93 101 104 108 110 97 115 108 118 112 114 111 105 104 108 110 109 108 105 105 107 108 101 185 104
114 168 179 167 153 135 185 188 221 132 151 224 249 220 202 201 215 177 187 193 214 200 187 190 195 204 170 97 119 117 92 94 106 103 110 104 108 108 107 108 105 107 108 107 101 110 108 97 131
142 188 189 193 199 153 197 196 214 201 203 203 220 286 228 200 196 210 167 192 175 205 184 197 206 220 228 89 88 90 90 84 120 105 101 103 98 101 103 107 105 111 109 107 108 109 106 110 183
192 183 184 184 188 154 154 187 155 208 187 193 199 233 295 247 216 209 213 200 164 164 190 199 213 176 241 88 89 92 86 88 93 95 100 101 102 102 144 97 99 102 104 195 211 108 108 108 105
203 204 204 197 192 150 169 194 197 206 196 189 196 196 230 304 279 240 214 239 159 194 205 172 208 179 214 216 203 156 91 119 93 95 95 101 101 90 123 93 148 98 190 101 102 113 146 152 101
212 214 211 202 202 176 188 199 135 209 201 187 187 222 200 231 277 269 246 223 197 167 179 198 195 219 214 190 213 208 192 92 89 109 150 94 93 148 197 94 97 134 134 95 163 138 136 95 114
199 209 224 222 211 202 199 198 203 205 208 209 186 208 199 220 230 263 254 232 230 227 163 220 219 192 179 231 216 206 236 167 207 185 186 173 181 197 90 93 96 92 101 98 81 93 92 92 88
208 205 217 221 198 201 205 205 201 205 204 198 191 202 187 213 218 220 212 261 227 227 177 219 220 199 210 180 187 208 180 171 210 187 186 206 210 207 189 192 194 120 95 102 131 103 91 104 96
208 193 273 217 217 218 189 179 207 209 206 204 207 214 215 197 218 213 220 211 265 234 227 202 209 206 182 189 191 177 187 176 185 180 172 188 203 207 193 200 195 186 189 192 189 186 191 188 189
238 248 243 275 250 221 185 185 190 199 206 204 199 204 193 190 195 212 188 216 217 305 229 228 228 214 178 227 172 183 184 181 195 196 194 152 187 169 185 185 200 191 190 190 188 186 180 184 189
235 246 266 238 256 244 222 214 196 202 199 208 201 201 209 206 208 202 217 223 221 203 255 260 226 198 230 223 209 186 206 208 198 192 210 186 194 195 207 172 168 179 185 182 188 184 181 179 161
242 234 247 265 243 211 203 217 205 216 178 209 207 202 203 208 202 209 182 215 220 222 205 219 241 275 287 268 247 241 245 254 215 205 210 199 196 188 188 181 183 202 197 194 181 191 192 189 185
226 235 231 245 258 246 232 243 225 215 215 211 208 206 205 201 210 198 205 193 221 216 216 232 204 211 223 228 243 257 276 277 235 210 236 201 214 204 199 214 187 192 194 230 222 206 208 203 216
222 226 231 232 233 248 248 227 234 219 212 210 208 207 202 155 199 209 188 189 212 208 213 212 187 220 217 215 220 219 218 223 226 296 269 249 227 209 193 195 211 197 204 213 217 201 227 205 202
205 211 221 221 222 224 231 250 224 236 219 214 213 210 210 209 207 205 201 191 210 218 191 211 204 208 220 210 227 211 212 205 221 216 216 223 260 247 248 237 229 180 202 199 194 236 220 222 203

GFSSGP_2pvu_pres_255.txt.gz
Presure
134 248 141 109 97 99 154 112 95 112 179 118 179 157 122 174 147 97 114 169 133 182 101 128 95 91 90 90 103 111 94 110 105 111 108 109 114 107 118 121 109 104 143 89 115 95 81 148 77
90 228 238 97 96 96 101 139 180 114 171 130 152 141 114 118 151 136 154 143 100 129 118 142 136 94 151 117 119 116 120 94 100 107 110 109 108 113 116 112 121 110 121 114 105 122 114 90 76
101 211 219 227 238 176 105 185 174 144 139 99 112 161 160 110 106 114 113 124 118 144 123 122 134 169 136 131 128 109 120 120 121 102 113 114 108 112 111 111 120 118 111 154 115 121 113 78 123
215 197 223 218 104 92 91 98 206 196 186 168 93 112 148 125 110 117 111 130 182 121 125 116 117 114 109 116 142 140 124 122 116 130 115 111 99 113 105 124 139 118 152 123 165 102 78 81 142
193 83 118 158 211 214 214 169 96 207 206 104 128 170 137 149 115 109 120 121 101 131 115 127 126 110 114 120 116 124 129 116 158 119 148 111 125 118 109 122 112 114 110 102 124 117 153 155 143
138 79 83 84 87 88 119 89 96 91 93 184 107 147 102 107 101 113 110 113 114 114 112 187 147 168 113 124 116 106 104 118 133 106 109 110 116 119 116 155 141 122 120 113 114 138 121 149 148
83 167 184 79 84 82 81 85 177 191 94 96 232 93 103 111 119 114 114 105 110 111 119 119 113 117 120 108 141 132 117 112 143 131 130 117 143 161 146 119 113 122 110 152 108 148 122 161 157
96 164 147 183 82 84 139 82 84 87 93 91 96 140 231 213 113 116 122 130 114 120 119 109 117 125 118 124 181 162 166 108 122 114 136 148 136 113 115 144 106 120 116 115 125 149 149 147 158
148 155 173 86 85 85 170 88 83 174 101 81 159 206 146 172 186 234 138 111 114 166 170 112 111 114 121 125 129 185 135 153 182 112 164 156 158 114 156 143 134 159 169 149 160 163 164 160 145
191 175 180 83 120 113 172 159 82 133 76 81 154 146 125 175 91 97 192 153 116 108 116 105 100 110 107 114 118 128 131 120 117 109 120 172 141 173 129 137 139 145 141 159 157 168 166 126 149
135 169 178 176 161 148 195 163 76 87 84 82 101 167 84 160 84 82 88 237 204 248 216 214 103 201 112 160 111 113 113 113 115 116 127 158 147 145 156 130 138 123 143 151 140 147 147 141 117
178 151 173 197 168 164 176 87 141 155 216 88 87 82 188 103 90 91 81 94 141 90 97 217 216 204 209 106 111 104 99 108 106 109 128 106 110 115 116 115 160 119 144 118 109 118 116 122 115
179 187 145 155 159 164 178 211 167 163 155 115 209 142 410 275 419 88 137 90 97 96 165 98 174 208 203 198 199 126 108 105 103 104 100 111 110 116 105 115 141 108 113 113 111 126 116 121 109
137 134 174 181 137 146 172 181 159 168 225 182 114 79 78 90 156 83 95 146 242 114 82 81 89 102 200 144 168 198 172 102 105 127 106 104 114 106 110 106 110 109 108 109 121 107 137 129 141
129 172 128 131 130 148 174 174 169 141 216 189 148 227 132 138 228 79 72 80 78 215 79 97 93 211 98 98 103 164 110 188 165 132 114 113 147 108 130 109 102 104 105 104 130 148 125 105 111
131 132 148 132 131 179 160 133 146 179 201 192 175 221 214 151 130 131 232 109 188 205 202 83 104 88 86 84 161 99 103 109 107 113 123 159 122 115 109 109 110 108 106 105 104 98 103 105 107
160 132 131 123 133 164 174 142 131 145 175 163 197 185 214 232 156 126 216 188 184 72 77 80 79 81 219 147 177 95 95 94 170 148 153 100 167 105 160 162 119 105 105 110 113 109 107 105 104
198 156 157 185 173 130 166 181 168 144 126 237 185 205 153 213 221 202 195 201 184 211 218 206 190 220 208 129 194 223 219 224 94 169 171 89 108 109 107 122 113 108 108 107 107 107 107 143 105
220 200 177 204 198 137 185 186 175 130 136 191 184 183 205 117 191 192 211 202 204 169 167 177 177 198 217 201 179 207 89 208 96 91 97 96 96 183 183 96 96 98 102 99 104 103 101 102 104
201 207 199 215 152 209 121 188 186 186 132 183 208 186 193 219 197 192 207 206 186 180 184 204 182 188 210 180 192 164 198 225 189 89 125 174 88 95 98 150 143 149 99 99 94 90 96 134 180
244 206 225 213 214 212 217 197 198 197 202 146 195 214 179 189 226 197 199 209 205 180 185 192 191 172 154 192 184 172 208 217 211 219 226 155 86 87 95 100 95 138 91 89 154 203 152 146 179
233 228 230 233 213 232 196 207 212 171 204 151 138 201 184 187 202 210 186 182 191 192 196 197 193 193 201 190 183 209 175 177 185 194 211 192 201 200 109 118 167 178 179 187 197 106 94 90 84
235 253 246 237 247 210 204 228 202 198 210 208 202 211 186 167 186 197 241 283 199 194 193 201 194 201 200 195 210 191 174 191 204 179 185 175 208 158 225 194 193 164 172 180 181 210 189 194 160
248 252 253 218 218 194 248 200 201 218 218 203 208 211 199 157 225 185 204 228 269 250 208 177 205 221 205 198 191 217 193 217 190 179 196 183 176 188 198 207 199 185 177 190 197 198 207 200 215
251 252 256 253 247 253 235 258 196 198 219 216 200 199 200 208 206 219 196 186 217 235 279 215 215 212 216 217 217 177 222 180 197 194 188 185 204 199 171 191 173 212 170 160 167 168 182 156 158
245 251 260 259 252 250 246 256 255 242 217 208 203 205 197 201 212 220 179 203 191 221 216 145 269 245 241 213 226 195 183 177 216 191 213 206 185 185 183 184 191 188 191 183 195 192 203 205 193
234 236 238 246 254 253 240 242 242 258 236 223 215 210 188 194 195 205 218 181 194 198 211 195 217 249 244 237 227 216 224 223 201 195 195 184 207 171 163 193 198 207 196 192 208 194 192 181 170
212 218 224 234 237 240 240 235 259 230 259 237 227 219 211 196 202 194 204 213 185 195 184 195 210 211 230 227 217 214 233 215 210 224 218 211 210 214 235 211 198 209 207 204 204 204 190 205 195
229 208 211 221 227 230 235 231 229 258 230 251 233 222 199 210 202 212 210 207 211 180 205 197 205 205 215 201 231 277 225 215 207 206 201 195 198 199 197 200 207 218 219 238 198 209 229 198 193
216 230 234 201 207 218 225 226 224 225 249 234 247 231 219 193 205 207 212 213 203 214 186 203 152 182 210 211 193 199 220 254 259 265 263 261 269 258 248 250 231 282 266 258 248 240 205 256 243

GFSSGP_2pvu_pres_258.txt.gz
Presure
230 95 132 97 98 113 170 169 196 200 177 177 176 172 168 127 130 142 120 126 168 104 107 176 96 91 142 85 93 89 98 110 116 117 96 115 114 103 101 117 111 112 101 102 85 84 89 112 83
224 221 133 100 104 89 139 121 90 166 137 149 160 161 125 124 178 128 184 110 120 148 142 143 136 95 97 94 91 92 97 110 104 109 102 102 103 115 114 115 117 116 130 128 123 111 117 81 77
219 225 225 228 97 178 92 152 177 135 150 121 154 161 176 112 159 125 130 121 144 153 160 167 107 100 97 117 134 90 112 113 103 95 99 106 114 110 110 112 113 116 141 107 101 84 78 117 90
209 190 217 221 226 229 94 93 102 143 147 160 170 158 170 123 128 153 128 183 119 115 101 98 108 112 176 107 127 118 147 116 121 118 119 121 122 114 122 110 112 115 144 132 118 153 117 103 169
82 207 213 212 125 218 228 123 99 210 176 162 147 145 109 123 110 102 113 112 124 123 125 123 121 120 104 122 104 100 126 127 113 123 117 123 116 116 104 110 115 112 125 118 124 116 117 135 116
160 196 192 200 203 201 186 220 159 193 175 220 215 205 184 104 119 151 137 111 114 113 104 183 127 128 154 120 106 110 118 116 115 151 114 136 157 175 110 115 113 113 118 158 146 156 110 108 119
168 96 166 170 175 99 196 176 83 88 117 219 196 223 168 220 134 111 113 109 107 123 128 99 120 143 115 121 113 152 128 119 113 126 169 124 148 135 108 115 120 149 144 152 137 106 117 114 145
169 154 85 85 81 85 173 107 187 96 91 201 189 100 190 228 197 105 120 131 106 109 116 115 110 111 123 116 113 107 115 124 111 129 139 134 108 168 132 147 166 149 133 123 163 121 105 144 171
130 100 83 83 89 163 86 78 154 84 86 83 174 83 99 100 195 123 104 100 111 108 109 113 114 114 116 117 114 123 119 115 129 188 124 104 163 143 106 176 130 113 114 101 115 164 164 155 151
153 175 169 160 79 127 106 80 82 82 177 84 127 185 192 201 209 91 204 167 119 116 101 115 123 111 111 121 113 118 127 125 107 128 147 150 130 154 126 148 157 137 146 138 140 148 137 143 180
158 158 164 148 164 81 163 181 89 89 111 157 89 132 83 90 183 94 111 99 200 226 102 96 179 110 109 107 109 138 125 120 120 125 128 127 133 150 118 121 171 117 144 132 152 139 139 137 123
177 178 177 174 179 172 147 128 82 80 79 156 82 172 168 88 144 165 90 242 92 104 109 103 119 103 108 102 94 117 133 128 168 127 129 127 110 110 110 136 159 153 127 120 157 144 118 165 121
178 182 169 178 175 148 166 173 170 170 79 188 119 135 178 84 169 88 88 88 77 83 128 89 118 239 218 195 220 196 204 184 163 151 112 110 148 110 184 109 100 128 136 114 114 113 157 117 111
141 177 153 177 179 174 158 152 172 166 124 192 167 159 127 127 88 90 157 132 88 94 149 96 131 185 170 103 176 230 201 199 186 139 106 101 107 124 104 107 104 112 97 102 108 109 108 108 109
158 137 139 161 143 172 183 137 137 175 156 161 177 80 87 194 76 151 260 530 183 84 92 91 217 121 190 91 93 103 217 197 194 104 115 105 105 108 104 103 108 109 116 105 105 139 103 103 113
134 136 166 132 171 171 133 172 179 186 157 156 171 191 178 204 237 81 116 78 107 156 128 168 174 82 81 84 153 95 99 102 102 169 170 182 119 111 121 111 110 125 105 112 108 102 103 107 104
192 177 180 122 131 158 145 141 128 187 188 158 153 187 123 172 151 231 218 147 134 142 104 105 131 155 122 199 90 90 164 90 84 93 150 108 105 101 138 104 111 149 162 103 114 112 111 103 107
201 194 137 195 139 184 134 176 140 121 129 190 149 147 141 138 197 225 204 222 199 190 232 130 214 219 215 112 116 82 82 165 92 89 124 105 195 181 193 195 158 106 175 109 121 110 111 151 105
203 204 217 217 226 146 167 149 141 141 131 129 197 144 150 148 160 200 197 211 205 206 204 125 148 182 210 193 110 212 175 189 183 84 94 205 163 116 100 219 97 182 212 109 96 125 133 183 104
200 204 203 207 210 214 217 219 213 128 162 131 179 147 147 138 166 141 197 213 190 202 192 206 183 131 185 177 204 205 211 215 187 202 234 209 121 117 127 95 148 94 92 94 96 92 112 98 102
194 215 226 206 210 243 202 199 202 137 126 129 178 202 148 174 211 135 175 187 132 166 121 191 180 169 147 168 186 179 171 197 177 186 173 176 224 211 189 85 238 99 85 142 127 140 96 94 97
207 188 198 225 215 197 203 209 229 199 207 136 125 135 171 200 184 173 174 174 184 207 175 203 196 184 178 203 215 185 193 198 212 165 193 188 186 200 216 210 184 204 228 222 184 183 109 118 208
259 246 247 243 252 204 223 201 226 235 234 219 120 117 204 135 134 181 179 194 187 195 180 197 192 190 203 183 191 210 184 197 196 208 186 193 157 198 175 183 199 181 184 180 177 195 203 212 140
265 263 253 227 238 221 228 228 250 239 238 273 219 204 206 188 168 160 179 197 182 200 183 193 180 167 180 202 180 198 212 189 199 204 173 196 185 169 197 191 184 199 170 183 173 193 166 195 207
254 255 255 260 260 255 249 240 229 238 248 227 264 211 202 208 219 213 186 179 187 217 190 199 180 183 188 192 181 189 192 191 195 199 200 197 195 176 206 193 192 189 201 188 168 173 187 170 187
246 251 253 252 246 247 252 250 243 246 250 223 212 245 238 226 201 216 184 185 190 183 193 133 188 191 179 191 196 181 191 194 194 200 199 214 161 223 207 176 189 185 181 195 224 207 203 215 187
224 231 236 244 252 253 257 252 256 251 241 251 253 205 207 193 223 213 198 203 173 216 198 209 218 211 191 201 198 219 182 195 208 199 211 212 227 218 180 173 212 229 175 168 175 173 184 186 166
204 204 212 219 229 236 234 234 242 253 250 245 251 261 223 214 200 215 217 218 224 217 195 190 201 209 229 233 221 230 201 200 204 210 200 205 216 205 219 201 228 226 165 205 189 202 206 187 180
220 209 211 213 211 213 222 224 228 239 248 253 245 252 258 253 219 211 218 205 203 194 195 177 180 204 213 212 223 225 247 239 198 220 198 213 227 231 223 234 222 233 202 214 204 200 199 204 194
215 216 225 224 223 204 208 211 219 221 233 243 247 234 250 252 247 220 218 218 212 205 195 200 219 191 180 182 189 212 218 219 227 242 246 238 232 220 209 211 202 211 209 202 201 202 198 197 202

GFSSGP_2pvu_pres_261.txt.gz
Presure
96 90 147 94 175 96 93 177 169 185 181 180 148 138 157 111 109 95 88 122 104 126 97 100 100 97 91 93 91 97 94 111 111 117 99 99 112 110 104 94 107 110 110 87 116 83 83 86 83
172 215 101 187 97 89 110 115 171 163 181 151 155 135 137 137 122 116 97 98 123 150 111 103 99 125 95 93 189 112 92 96 103 122 115 116 105 106 115 104 113 110 117 112 132 124 84 97 100
91 99 183 93 91 91 92 93 126 164 168 178 107 152 125 129 175 131 112 125 83 134 94 123 107 113 179 178 100 119 101 98 99 106 107 117 106 111 104 98 113 115 116 118 114 141 109 119 107
200 215 220 220 228 94 95 124 102 143 178 168 173 179 184 186 132 123 147 130 127 137 108 125 133 97 132 103 124 93 91 136 122 115 121 108 95 103 116 121 112 121 136 116 117 125 117 75 79
92 213 188 216 223 228 114 90 92 109 170 102 163 113 139 119 156 153 115 121 129 126 122 176 169 180 181 115 111 101 95 121 142 120 123 119 120 118 103 117 115 112 111 112 115 119 122 120 108
143 195 115 207 212 218 222 226 232 149 95 141 159 144 164 174 145 154 164 123 154 177 128 139 116 118 96 108 117 120 125 172 174 146 123 119 116 120 138 156 158 138 143 111 130 115 137 142 143
163 152 143 197 192 203 205 193 222 227 142 214 103 182 144 97 116 160 170 168 109 123 132 126 136 125 124 119 126 125 113 116 92 117 116 115 119 136 112 117 120 109 147 115 129 116 149 144 112
188 132 166 181 177 187 192 202 204 209 216 220 109 218 216 218 113 172 157 111 108 112 112 114 114 108 110 129 116 114 121 110 130 114 119 115 114 127 122 123 124 111 116 107 150 155 167 129 110
151 148 97 85 107 167 186 180 178 192 199 111 188 122 190 208 207 212 137 107 198 112 178 198 99 134 175 112 116 115 114 125 117 111 150 122 116 109 150 136 111 148 156 144 162 129 103 125 115
138 161 143 159 78 78 186 171 82 189 135 141 96 119 132 127 136 158 134 212 97 108 199 110 226 111 115 117 118 115 120 121 116 115 123 114 123 123 139 129 142 183 172 140 126 100 166 161 133
162 175 160 130 183 148 83 80 82 186 181 168 172 84 88 97 88 179 143 188 193 180 170 176 116 115 112 114 139 109 114 112 113 115 121 127 128 130 137 118 128 159 169 124 155 141 151 110 126
170 168 132 146 135 84 164 81 82 150 79 83 82 76 92 89 162 137 104 162 156 102 180 109 108 116 134 114 116 116 123 116 128 157 168 136 143 131 125 134 129 167 131 118 116 152 174 144 123
164 179 146 154 173 166 147 104 119 77 114 134 90 86 96 92 107 77 143 182 94 96 135 236 229 219 227 139 223 155 119 102 152 109 114 183 145 136 129 127 126 110 110 113 135 121 118 122 113
137 144 167 164 135 148 183 173 135 166 104 131 159 87 79 114 112 89 117 84 94 84 80 167 85 102 172 152 107 109 106 110 169 150 131 104 137 178 153 151 111 110 111 151 99 103 104 126 107
161 143 138 144 182 177 177 135 170 184 134 156 83 82 81 76 92 121 88 185 85 88 85 85 82 82 99 95 96 103 222 229 227 201 150 201 195 167 157 112 104 98 103 102 102 109 109 101 100
160 161 164 145 138 137 177 166 174 181 183 182 192 167 173 168 171 141 185 104 144 106 121 124 88 93 93 92 93 97 103 201 116 97 199 108 152 196 191 105 104 106 170 101 102 97 104 109 107
190 190 177 171 148 132 144 174 171 157 167 183 185 172 191 162 143 116 146 129 143 81 77 204 155 121 254 165 188 217 92 77 85 94 98 85 114 105 152 177 182 110 109 106 119 111 103 110 107
193 190 186 186 192 141 139 166 141 143 139 149 186 168 161 192 138 162 129 171 162 147 80 75 86 79 80 78 199 126 85 83 94 85 85 102 93 89 93 200 204 185 159 146 172 159 170 167 178
208 218 203 197 204 203 184 189 141 140 143 134 134 131 168 196 188 184 165 125 155 167 235 241 118 102 89 127 132 129 131 185 153 183 170 86 82 185 226 99 144 90 100 142 202 194 194 201 112
189 193 211 201 212 213 217 202 213 208 132 137 141 139 132 131 183 158 165 163 149 128 202 224 215 150 126 133 227 128 128 79 132 161 111 176 159 208 187 191 219 210 207 110 156 121 94 173 177
232 218 219 210 217 222 214 191 195 159 163 173 143 147 163 136 129 138 181 135 154 196 143 169 194 202 207 207 224 121 169 212 204 181 169 193 200 174 174 209 199 219 212 88 193 87 163 84 158
238 226 232 235 233 242 243 233 226 200 222 209 211 200 141 140 140 173 190 209 143 191 176 126 203 193 222 215 212 177 197 126 200 158 166 207 200 182 189 188 174 175 191 184 177 162 145 219 84
255 226 217 228 212 202 217 206 214 213 224 225 214 175 207 207 131 207 215 141 173 164 172 190 131 190 203 214 149 171 211 153 125 174 166 178 133 182 168 219 205 182 172 166 190 195 180 211 83
239 289 284 283 270 227 239 223 209 205 214 237 233 226 214 212 217 135 211 140 142 144 155 198 132 189 185 217 199 195 76 204 201 207 188 192 182 184 209 189 173 155 159 184 153 174 178 203 179
270 264 263 274 281 284 256 280 258 243 237 255 252 253 201 274 251 204 219 213 180 135 182 165 171 164 188 194 207 181 187 187 195 186 192 186 200 183 191 201 213 186 188 202 159 179 193 218 190
242 252 253 258 263 261 267 262 252 261 250 234 244 247 254 249 255 239 223 232 213 182 141 198 167 165 186 185 183 192 182 205 209 213 186 194 184 207 185 188 204 204 195 195 190 171 171 200 163
224 232 233 241 244 250 251 250 246 248 250 256 256 259 258 207 264 220 236 224 200 191 207 177 198 187 190 178 186 190 185 158 187 179 184 188 196 197 201 193 199 196 223 199 196 209 188 232 208
229 215 224 231 232 236 241 239 239 241 138 239 246 253 257 257 266 252 262 234 207 206 198 205 181 207 193 199 180 182 182 181 198 192 192 186 185 190 159 192 198 202 214 212 206 207 188 180 169
211 209 216 220 220 221 230 232 233 236 242 241 244 251 259 267 252 253 268 244 202 182 200 217 203 178 180 208 175 183 175 178 191 192 189 191 184 186 191 199 199 205 196 210 188 195 195 224 218
224 221 228 218 210 209 211 212 217 226 229 237 237 240 246 263 261 250 249 203 237 221 226 188 226 189 192 181 203 203 229 195 182 189 187 188 185 184 235 183 190 214 221 229 220 224 230 221 215

GFSSGP_2pvu_pres_264.txt.gz
Presure
249 186 96 182 99 99 169 166 106 148 100 167 111 166 169 167 99 107 120 141 101 105 97 95 94 94 92 81 87 85 83 91 96 107 116 111 108 109 109 106 104 108 111 83 110 121 123 112 85
237 91 90 93 177 182 183 176 168 170 159 164 164 167 133 149 96 105 105 168 132 97 99 100 116 96 98 99 95 97 94 97 103 117 112 115 103 101 112 113 108 108 105 111 95 78 81 83 96
219 184 89 85 88 91 195 180 117 173 172 165 120 175 171 167 143 126 106 127 122 137 120 100 160 101 100 96 91 91 111 94 101 97 107 115 120 104 101 95 114 111 116 116 115 115 106 123 94
218 94 96 89 222 97 143 95 95 99 140 174 169 179 183 129 110 171 130 113 97 91 170 106 141 103 96 96 148 97 99 117 97 98 138 106 112 109 109 111 110 114 117 102 120 110 106 109 93
200 202 90 159 90 180 97 93 94 95 95 173 170 166 167 112 138 134 108 127 133 119 96 97 108 110 131 107 114 157 157 91 93 142 93 113 115 105 99 105 109 122 122 115 116 116 116 128 118
215 217 194 91 91 229 161 91 93 95 128 101 140 167 170 170 143 120 124 124 147 147 142 115 117 100 126 130 124 107 101 101 171 105 106 171 128 117 119 121 115 109 121 120 170 113 112 112 119
188 198 203 218 209 200 215 220 226 97 97 93 169 146 175 105 174 172 178 178 159 125 136 118 126 130 146 165 182 161 127 126 141 125 169 146 95 124 119 122 126 140 121 126 124 117 151 112 117
195 181 190 194 199 210 213 216 219 218 99 96 219 140 151 107 171 136 163 127 170 145 120 125 176 127 133 143 110 97 98 109 115 161 122 100 142 121 121 173 123 152 107 123 120 128 113 123 164
136 173 155 142 193 192 165 203 210 212 217 224 143 125 136 147 149 174 90 153 154 161 156 166 129 175 127 128 132 144 125 120 123 123 117 113 119 114 118 118 116 122 118 123 121 148 144 158 161
157 166 154 133 168 117 194 184 189 193 198 197 203 202 164 104 118 217 213 159 208 207 194 214 110 149 119 123 118 110 111 116 116 118 123 119 119 149 161 122 113 106 115 168 151 142 157 179 120
140 140 128 139 157 92 179 191 167 192 178 177 177 195 190 176 193 204 166 202 119 163 205 117 217 175 104 107 118 123 216 162 115 122 111 113 116 109 109 122 112 132 133 120 112 121 123 162 168
161 165 130 128 133 138 177 175 166 183 189 188 171 174 176 190 184 154 151 186 188 187 167 107 104 155 119 113 110 108 117 121 122 120 121 120 112 118 119 123 119 131 131 123 112 168 130 119 114
146 163 166 131 176 131 144 135 81 186 188 176 174 84 160 176 174 82 86 89 144 190 188 174 181 182 106 115 105 105 116 115 118 113 113 113 118 117 125 147 148 165 123 120 151 125 122 135 128
162 161 160 177 143 131 128 171 134 167 101 96 110 82 97 78 83 138 86 93 133 96 103 129 178 118 107 108 100 111 154 100 101 107 121 109 109 109 116 113 115 141 122 167 114 154 114 111 152
157 166 166 149 152 169 178 168 165 130 152 162 158 83 84 83 85 89 94 86 116 130 180 176 96 85 155 189 122 167 178 263 173 141 133 108 110 197 102 119 103 171 142 168 171 105 107 105 123
171 165 167 154 176 154 146 169 136 173 183 127 158 166 129 81 177 96 88 87 88 99 91 82 91 98 182 146 83 88 101 112 95 216 129 105 134 132 201 197 185 157 153 153 154 104 102 109 120
167 159 168 169 168 168 141 158 150 165 155 183 184 156 162 185 161 170 174 92 103 120 91 141 149 111 88 87 93 88 90 159 136 171 198 100 183 131 228 100 149 145 103 185 182 109 133 181 101
187 185 177 176 181 167 147 164 142 155 140 157 188 187 177 171 175 142 176 106 164 121 80 168 151 171 83 80 84 89 138 93 132 145 169 84 216 86 91 195 92 100 201 187 92 100 162 161 101
198 193 189 187 190 176 167 163 166 165 144 142 144 161 176 183 184 170 185 173 176 80 148 82 168 176 78 77 198 79 83 78 83 90 83 83 85 90 84 78 82 84 84 92 165 211 92 194 162
203 209 210 196 199 203 200 194 191 196 190 156 144 152 144 183 174 189 179 195 180 164 161 165 97 102 95 73 130 88 80 80 80 139 161 111 102 191 197 146 134 82 209 100 85 212 213 128 218
223 220 207 192 210 223 210 203 204 201 199 199 192 150 153 173 138 139 137 138 194 186 200 173 177 144 153 166 241 135 167 253 250 131 232 127 129 127 79 154 206 149 158 215 205 172 192 203 208
223 227 232 230 222 208 201 204 203 194 198 191 212 224 204 149 196 139 142 133 157 178 186 133 148 151 155 168 158 243 244 165 259 138 187 177 126 179 178 177 160 176 195 183 164 196 179 176 184
221 219 223 224 238 230 239 238 197 224 215 212 221 227 231 227 210 145 212 215 140 160 144 150 144 191 120 211 131 182 161 224 226 199 172 212 184 189 208 190 203 194 192 172 180 179 186 165 178
232 225 224 226 225 230 230 209 242 236 237 233 239 244 225 225 218 124 196 161 194 216 152 141 174 139 184 133 175 148 180 209 203 213 213 191 189 195 199 192 162 179 181 197 196 166 200 170 174
216 218 218 218 211 245 244 243 234 240 255 241 216 240 224 227 241 227 233 171 210 208 143 213 183 170 150 204 155 216 172 152 196 216 161 203 122 160 161 202 154 182 172 175 171 187 167 181 168
231 232 229 236 232 228 235 245 285 297 283 288 200 258 204 253 211 216 215 225 203 224 201 143 139 156 127 138 180 213 197 183 192 188 204 202 186 210 230 207 162 182 190 214 188 190 180 194 197
256 259 269 263 260 248 262 277 271 275 279 277 279 279 275 256 258 239 262 255 228 212 211 219 193 188 148 133 129 186 142 155 216 194 161 208 190 197 194 199 209 174 217 207 182 183 183 193 189
219 236 248 259 257 259 248 247 251 259 259 261 267 266 267 269 266 203 255 253 256 205 197 244 196 194 188 179 153 136 167 199 148 169 208 202 155 201 200 198 190 200 195 197 190 191 184 190 247
214 213 217 243 246 245 244 239 243 245 248 246 254 255 257 257 256 262 264 264 262 252 236 253 212 196 211 197 192 188 184 189 161 179 179 191 183 190 157 144 190 194 203 195 178 173 196 213 196
224 214 216 209 207 246 243 234 231 235 242 242 243 246 247 248 252 253 247 226 264 236 261 238 235 204 213 201 187 190 181 180 179 182 181 181 135 183 206 182 179 179 223 189 232 219 211 189 203